[[{"header":{"parameterUnit":"m.s-1","parameterCategory":2,"la1":30.2991,"la2":30.254,"lo1":-89.0895,"lo2":-89.0444,"dy":0.0017,"dx":0.0017,"nx":28,"ny":28,"refTime":"2023-08-23T21:00:00:Z","depth":"0","parameterNumber":2,"parameterNumberName":"U-component_of_CURRENTS"},"data":[0,0,0,0,0,0,0,0,0,0,0,0,0,0,0,0,0,0,0,0,0,0,0,0,0,0,0,0,0,0,0,0,0,0,0,0,0,0,0,0,0,0,0,0,0,0,0,0,0,0,0,0,0,0,0,0,0,0,0.3801,0.3802,0,0.3831,0.3831,0.3831,0.3832,0.3832,0.3832,0.3832,0.3868,0.3868,0.3869,0,0,0,0,0,0,0,0,0,0,0,0,0,0.3771,0.3771,0.3801,0.3802,0.3803,0.3831,0.3831,0.3831,0.3832,0.3832,0.3832,0.3832,0.3867,0.3868,0.387,0,0,0,0,0,0,0,0,0,0,0,0,0,0.3787,0.3771,0.3801,0.3809,0.3811,0.3831,0.3831,0.3831,0.3832,0.3832,0.3832,0.3832,0.3867,0.3868,0.387,0.3879,0,0,0.3874,0.3875,0,0,0,0,0,0,0,0,0.3786,0.3787,0.3807,0.3809,0.381,0.3831,0.3834,0.3849,0.3832,0.3819,0.3832,0.3832,0.3859,0.3861,0.3861,0.3881,0.3882,0.3874,0.3875,0.3876,0.3876,0,0,0,0,0,0,0,0.3785,0.3786,0.3809,0.3808,0.381,0.3821,0.3822,0.3837,0.3836,0.3821,0.3822,0.3831,0.3859,0.3859,0.3862,0.3883,0.3874,0.3875,0.3876,0.3877,0.3948,0.3949,0,0,0,0,0,0,0.3788,0.3785,0.3808,0.381,0.3802,0.3822,0.3823,0.3821,0.3836,0.3839,0.3831,0.3831,0.3857,0.386,0.3863,0.3879,0.3876,0.3877,0.3878,0.3947,0.3948,0.395,0,0,0,0,0,0,0.3787,0.3789,0.3807,0.3802,0.3806,0.3822,0.382,0.3822,0.3826,0.3845,0.3847,0.3835,0.3857,0.3861,0.3881,0.3881,0.3878,0.3879,0.3946,0.3948,0.3949,0.391,0,0,0,0,0,0,0.3785,0.3788,0.3787,0.3802,0.3806,0.3821,0.3821,0.3823,0.3834,0.3834,0.3848,0.3851,0.3857,0.3879,0.3883,0.3883,0.388,0.3945,0.3947,0.3949,0.391,0.391,0.391,0,0,0,0,0,0.3784,0.3777,0.3787,0.379,0.3804,0.3822,0.3825,0.3834,0.3834,0.3837,0.3849,0.3851,0.3894,0.3881,0.3885,0.3885,0.3944,0.3946,0.3948,0.391,0.391,0.391,0,0,0,0,0,0,0.3749,0.3777,0.3788,0.3786,0.3808,0.3824,0.3822,0.3836,0.3847,0.3846,0.3859,0.3863,0.3887,0.3897,0.3882,0.3916,0.3922,0.3925,0.3891,0.3891,0.3891,0.3876,0.3881,0,0,0,0,0,0.3746,0.3754,0.3782,0.378,0.3787,0.3807,0.3815,0.3829,0.3843,0.3846,0.3856,0.3874,0.39,0.3903,0.3928,0.3936,0.395,0.3944,0.3944,0.3944,0.3938,0.3981,0.3983,0.3957,0.3957,0.3957,0,0,0.3734,0.3749,0.3754,0.3776,0.3784,0.3789,0.381,0.3822,0.3831,0.385,0.3851,0.3878,0.3907,0.3923,0.3933,0.3926,0.3955,0.3947,0.3946,0.394,0.3983,0.3986,0.3988,0.3959,0.3958,0.3958,0,0,0.3708,0.3723,0.372,0.3736,0.3762,0.3778,0.3784,0.3806,0.3818,0.3836,0.3857,0.3882,0.3906,0.3924,0.3938,0.3956,0.3964,0.3968,0.3938,0.398,0.3982,0.3984,0.398,0.3982,0.3955,0.3955,0.3955,0,0.3684,0.3687,0.3722,0.3719,0.3725,0.377,0.3764,0.3787,0.3815,0.3824,0.3834,0.3882,0.3907,0.3929,0.3935,0.3953,0.3965,0.3929,0.3977,0.398,0.3982,0.3979,0.3982,0.3953,0.3953,0.3953,0.3954,0,0.3663,0.3661,0.3654,0.3668,0.3684,0.3686,0.3727,0.3743,0.3767,0.3791,0.3826,0.3863,0.3886,0.3906,0.3922,0.3952,0.3949,0.398,0.3969,0.3982,0.3978,0.3981,0.3951,0.3951,0.3952,0.3952,0,0,0.3607,0.3633,0.3633,0.3631,0.3656,0.367,0.3682,0.3709,0.3718,0.3759,0.3764,0.3821,0.3845,0.3864,0.3895,0.3927,0.3951,0.3952,0.3955,0.3931,0.401,0.3806,0.379,0.3991,0.3992,0.3993,0.399,0,0.3569,0.3568,0.3588,0.3578,0.3572,0.3609,0.3618,0.3656,0.3688,0.3707,0.3764,0.379,0.383,0.384,0.388,0.3949,0.3962,0.3946,0.4015,0.4016,0.382,0.3788,0.3583,0.3545,0.3993,0.3994,0.3994,0,0.353,0.354,0.3527,0.3537,0.3537,0.3538,0.3561,0.3581,0.3626,0.3649,0.3682,0.3728,0.3779,0.3815,0.3914,0.3903,0.3944,0.3991,0.3993,0.3816,0.3818,0.3613,0.3535,0.3426,0.4,0.3999,0.3999,0,0.3487,0.3489,0.3483,0.3485,0.3507,0.3502,0.3519,0.3557,0.3569,0.361,0.3613,0.3689,0.3715,0.3807,0.3895,0.3911,0.3992,0.403,0.3877,0.3863,0.3705,0.3672,0.3512,0.4082,0.4082,0.4082,0.4082,0,0.3436,0.3423,0.3463,0.3457,0.3442,0.3475,0.3459,0.3486,0.3514,0.3511,0.358,0.3581,0.372,0.3779,0.3872,0.3858,0.3974,0.3845,0.3842,0.368,0.3647,0.356,0.3565,0.4082,0.4082,0.4082,0.4082,0,0.3376,0.3401,0.3384,0.3412,0.3412,0.3407,0.341,0.3409,0.3443,0.3435,0.3444,0.3508,0.3566,0.3678,0.3806,0.3781,0.3693,0.3801,0.3566,0.3531,0.3214,0.3225,0.2979,0.291,0.3596,0.359,0.3586,0,0.3345,0.3337,0.335,0.334,0.3341,0.3337,0.3326,0.3361,0.3356,0.338,0.337,0.341,0.3411,0.3476,0.3473,0.3519,0.3513,0.3301,0.3276,0.312,0.3136,0.3072,0.3032,0.3067,0.3058,0.3052,0.3046,0,0.3289,0.3295,0.33,0.3268,0.325,0.3228,0.322,0.3201,0.3233,0.3222,0.3204,0.3207,0.3206,0.3109,0.3104,0.3124,0.3074,0.3152,0.3086,0.2749,0.2581,0.2538,0.3136,0.2986,0.2992,0.2996,0.3,0.3002,0.3247,0.3224,0.322,0.3167,0.3155,0.3098,0.3023,0.3026,0.298,0.29,0.3003,0.2919,0.2829,0.2769,0.276,0.2506,0.2637,0.24,0.2442,0.2403,0.2253,0.2658,0.2441,0.2444,0.2446,0.2448,0.245,0,0.3149,0.3131,0.311,0.3027,0.2955,0.2981,0.2921,0.282,0.2703,0.2693,0.2639,0.2471,0.2305,0.2245,0.1979,0.1833,0.1821,0.1772,0.1693,0.1711,0.2142,0.2033,0.16,0.16,0.16,0.1601,0.1601,0.1601,0.3099,0.3023,0.2985,0.2823,0.2773,0.2608,0.2539,0.2429,0.2381,0.217,0.2032,0.2006,0.189,0.1631,0.139,0.1365,0.132,0.1163,0.1281,0.1636,0.1701,0.1762,0.1658,0.1153,0.1153,0.0744,0.074,0.0738]},{"header":{"parameterUnit":"m.s-1","parameterCategory":2,"la1":30.2991,"la2":30.254,"lo1":-89.0895,"lo2":-89.0444,"dy":0.0017,"dx":0.0017,"nx":28,"ny":28,"refTime":"2023-08-23T21:00:00:Z","depth":"0","parameterNumber":3,"parameterNumberName":"V-component_of_CURRENTS"},"data":[0,0,0,0,0,0,0,0,0,0,0,0,0,0,0,0,0,0,0,0,0,0,0,0,0,0,0,0,0,0,0,0,0,0,0,0,0,0,0,0,0,0,0,0,0,0,0,0,0,0,0,0,0,0,0,0,0,0,0.0557,0.0557,0,0.059,0.059,0.0591,0.0613,0.0613,0.0612,0.0612,0.0623,0.0623,0.0624,0,0,0,0,0,0,0,0,0,0,0,0,0,0.051,0.0512,0.0557,0.0557,0.0557,0.059,0.059,0.0591,0.0613,0.0613,0.0612,0.0612,0.0623,0.0623,0.0624,0,0,0,0,0,0,0,0,0,0,0,0,0,0.0539,0.0512,0.0557,0.0569,0.057,0.059,0.059,0.0591,0.0613,0.0613,0.0612,0.0612,0.0623,0.0623,0.0624,0.0634,0,0,0.0626,0.0626,0,0,0,0,0,0,0,0,0.0538,0.0541,0.0567,0.0568,0.057,0.0594,0.0578,0.0603,0.0613,0.0601,0.0612,0.0612,0.0609,0.0611,0.0623,0.0635,0.0635,0.0626,0.0627,0.0627,0.0627,0,0,0,0,0,0,0,0.0536,0.054,0.0574,0.0567,0.0569,0.0572,0.0576,0.0583,0.0608,0.0602,0.0602,0.06,0.061,0.0622,0.0623,0.0635,0.0626,0.0627,0.0627,0.0628,0.0693,0.0694,0,0,0,0,0,0,0.0525,0.0538,0.0573,0.0574,0.0548,0.0573,0.0577,0.0589,0.0609,0.0611,0.06,0.0601,0.0621,0.0623,0.0624,0.0662,0.0627,0.0628,0.0628,0.0691,0.0693,0.0694,0,0,0,0,0,0,0.0524,0.0528,0.0571,0.0553,0.0558,0.0573,0.0587,0.059,0.0603,0.0608,0.061,0.0609,0.0621,0.0623,0.0634,0.0661,0.0628,0.0629,0.069,0.0692,0.0694,0.0721,0,0,0,0,0,0,0.0523,0.0528,0.0538,0.0553,0.0559,0.0588,0.0587,0.0591,0.06,0.0602,0.0616,0.0617,0.0621,0.0633,0.0635,0.0661,0.0629,0.0688,0.0691,0.0693,0.0719,0.0724,0.0728,0,0,0,0,0,0.0521,0.0546,0.0539,0.0542,0.0571,0.0588,0.0592,0.0604,0.0601,0.0613,0.0619,0.0616,0.0651,0.0634,0.0636,0.0664,0.0687,0.069,0.0693,0.0716,0.0723,0.0728,0,0,0,0,0,0,0.0539,0.0551,0.0543,0.0571,0.0575,0.059,0.0607,0.0604,0.0621,0.0623,0.0623,0.0625,0.0649,0.0651,0.0633,0.0692,0.0672,0.0676,0.069,0.0696,0.0701,0.0737,0.063,0,0,0,0,0,0.0542,0.0563,0.0563,0.0587,0.0589,0.0594,0.0602,0.0606,0.0617,0.0625,0.0627,0.0641,0.0664,0.0673,0.0688,0.0712,0.0729,0.0735,0.074,0.0744,0.0776,0.0839,0.0852,0.0704,0.0704,0.0704,0,0,0.0555,0.0564,0.0576,0.0591,0.0598,0.0616,0.0601,0.0618,0.0639,0.0622,0.0651,0.0652,0.0673,0.0706,0.0718,0.0709,0.0785,0.0748,0.0751,0.0782,0.0843,0.0858,0.0871,0.0706,0.0706,0.0705,0,0,0.0589,0.0598,0.062,0.0627,0.0632,0.0638,0.064,0.0646,0.0657,0.0675,0.0677,0.0699,0.0715,0.0748,0.0766,0.0808,0.0806,0.0803,0.086,0.0919,0.0932,0.0944,0.0937,0.0949,0.0808,0.0809,0.0809,0,0.0594,0.0626,0.0629,0.0649,0.0661,0.0648,0.0671,0.0687,0.0694,0.0715,0.0689,0.0752,0.0751,0.0824,0.0835,0.0823,0.0832,0.083,0.0926,0.0939,0.0951,0.0942,0.0954,0.081,0.081,0.081,0.081,0,0.064,0.0663,0.068,0.0703,0.072,0.0737,0.0748,0.0765,0.0764,0.0779,0.0831,0.0835,0.0881,0.0877,0.0867,0.0953,0.092,0.092,0.0911,0.0967,0.0953,0.0965,0.0813,0.0812,0.0811,0.0811,0,0,0.0646,0.0697,0.07,0.0722,0.0746,0.0766,0.081,0.0848,0.0894,0.0897,0.0966,0.0991,0.0992,0.1014,0.1005,0.1049,0.1105,0.1019,0.1021,0.1011,0.1192,0.1096,0.1099,0.1121,0.1124,0.1127,0.1131,0,0.0668,0.0714,0.074,0.0793,0.0818,0.0838,0.0886,0.0926,0.0954,0.1015,0.1041,0.1094,0.1046,0.1068,0.1108,0.1122,0.1147,0.1101,0.1143,0.1143,0.1052,0.1115,0.1061,0.1056,0.1143,0.1145,0.1146,0,0.0695,0.0724,0.0771,0.0843,0.0857,0.0892,0.0973,0.1015,0.11,0.1127,0.119,0.1208,0.1277,0.1225,0.1288,0.1259,0.1234,0.1228,0.1228,0.115,0.1073,0.1025,0.1075,0.1009,0.1165,0.1163,0.1162,0,0.0692,0.0751,0.0789,0.0809,0.0883,0.0922,0.0965,0.1048,0.1103,0.1206,0.1262,0.1336,0.1381,0.1397,0.1363,0.1341,0.1414,0.1383,0.1267,0.1256,0.1229,0.1211,0.1229,0.1435,0.1435,0.1435,0.1435,0,0.0709,0.0747,0.0791,0.0816,0.0884,0.0932,0.102,0.1078,0.1178,0.1268,0.1318,0.1403,0.1433,0.1465,0.142,0.1376,0.1459,0.1299,0.1276,0.1227,0.121,0.1165,0.1144,0.1435,0.1435,0.1435,0.1435,0,0.0724,0.0741,0.0797,0.0862,0.0886,0.0938,0.1043,0.1115,0.1199,0.1324,0.1364,0.1476,0.1525,0.1508,0.1533,0.1441,0.1364,0.1364,0.1265,0.123,0.1042,0.1024,0.1056,0.1029,0.1253,0.1251,0.1249,0,0.0742,0.0765,0.0822,0.0853,0.0887,0.0962,0.1023,0.1116,0.1198,0.1367,0.1436,0.1526,0.16,0.1572,0.1457,0.1361,0.1317,0.1204,0.1162,0.1046,0.1011,0.1013,0.099,0.1115,0.1112,0.111,0.1109,0,0.0785,0.0794,0.0836,0.088,0.0935,0.1014,0.1105,0.1174,0.1301,0.1407,0.1554,0.1629,0.1604,0.1519,0.1361,0.1274,0.1149,0.1152,0.1103,0.0971,0.0915,0.0871,0.1047,0.1089,0.1091,0.1093,0.1094,0.1094,0.0816,0.0842,0.087,0.0917,0.098,0.1066,0.1133,0.1243,0.1374,0.1535,0.1609,0.1716,0.1559,0.1363,0.1237,0.0943,0.1018,0.0853,0.0855,0.0878,0.0825,0.0915,0.0886,0.0886,0.0887,0.0887,0.0888,0,0.0836,0.0858,0.0906,0.0959,0.1021,0.1056,0.1187,0.1261,0.1406,0.1554,0.1666,0.1625,0.1436,0.1222,0.0845,0.068,0.0654,0.0609,0.0629,0.0632,0.0772,0.0734,0.0586,0.0586,0.0587,0.0587,0.0587,0.0587,0.0847,0.0876,0.0887,0.0968,0.1019,0.1104,0.1178,0.1301,0.142,0.1543,0.1587,0.1628,0.143,0.0916,0.057,0.0498,0.045,0.0412,0.0425,0.0524,0.0548,0.0571,0.0531,0.0343,0.0343,0.0284,0.0283,0.0282]}],[{"header":{"parameterUnit":"m.s-1","parameterCategory":2,"la1":30.2991,"la2":30.254,"lo1":-89.0895,"lo2":-89.0444,"dy":0.0017,"dx":0.0017,"nx":28,"ny":28,"refTime":"2023-08-23T21:00:00:Z","depth":"2","parameterNumber":2,"parameterNumberName":"U-component_of_CURRENTS"},"data":[0,0,0,0,0,0,0,0,0,0,0,0,0,0,0,0,0,0,0,0,0,0,0,0,0,0,0,0,0,0,0,0,0,0,0,0,0,0,0,0,0,0,0,0,0,0,0,0,0,0,0,0,0,0,0,0,0,0,0.2044,0.2044,0,0.201,0.2009,0.2008,0.2125,0.2129,0.2133,0.2136,0.2207,0.2206,0.2204,0,0,0,0,0,0,0,0,0,0,0,0,0,0.197,0.1972,0.2044,0.2044,0.2044,0.201,0.2009,0.2008,0.2125,0.2129,0.2134,0.2138,0.2208,0.2206,0.2204,0,0,0,0,0,0,0,0,0,0,0,0,0,0.1973,0.1973,0.2044,0.21,0.2104,0.201,0.2009,0.2008,0.2124,0.2129,0.2135,0.214,0.2208,0.2206,0.2204,0.2076,0,0,0.2196,0.2195,0,0,0,0,0,0,0,0,0.1973,0.1976,0.2092,0.2096,0.2101,0.208,0.2009,0.2037,0.2122,0.2114,0.2136,0.2143,0.2172,0.2173,0.2149,0.2079,0.2082,0.2196,0.2195,0.2193,0.2193,0,0,0,0,0,0,0,0.1973,0.1977,0.2028,0.2091,0.2097,0.2043,0.2052,0.2013,0.2111,0.2115,0.2124,0.2122,0.2176,0.215,0.2151,0.2083,0.2196,0.2194,0.2192,0.2191,0.2218,0.222,0,0,0,0,0,0,0.1989,0.1978,0.2029,0.2027,0.2053,0.2042,0.2051,0.2079,0.211,0.212,0.2117,0.2128,0.2152,0.2154,0.2155,0.2242,0.2194,0.2191,0.219,0.2216,0.2219,0.2221,0,0,0,0,0,0,0.1988,0.1995,0.2031,0.2001,0.2003,0.2039,0.2067,0.2075,0.2097,0.2111,0.2124,0.2138,0.2156,0.2158,0.2166,0.2237,0.219,0.2188,0.2213,0.2217,0.222,0.2265,0,0,0,0,0,0,0.1987,0.1996,0.2015,0.2004,0.2006,0.1993,0.2063,0.2071,0.2086,0.21,0.2131,0.2141,0.2161,0.217,0.2164,0.2233,0.2186,0.2211,0.2215,0.2219,0.226,0.2269,0.2276,0,0,0,0,0,0.1984,0.2016,0.2017,0.2022,0.2035,0.1992,0.1986,0.2027,0.2082,0.2071,0.2116,0.2143,0.2196,0.2166,0.216,0.2231,0.2209,0.2214,0.2218,0.2257,0.2267,0.2276,0,0,0,0,0,0,0.1996,0.2029,0.2032,0.2072,0.2032,0.2014,0.203,0.2028,0.2045,0.21,0.2115,0.2124,0.2174,0.2175,0.2144,0.2257,0.2227,0.223,0.2259,0.2268,0.2276,0.2321,0.2184,0,0,0,0,0,0.1997,0.2036,0.2017,0.2038,0.2042,0.2026,0.2018,0.2037,0.2047,0.2064,0.2082,0.2133,0.2171,0.22,0.2214,0.2226,0.2234,0.2288,0.2296,0.2302,0.2338,0.2392,0.2408,0.2237,0.2237,0.2237,0,0,0.1998,0.2025,0.2041,0.204,0.204,0.2021,0.204,0.205,0.2053,0.2063,0.2103,0.2135,0.2175,0.2227,0.2254,0.2248,0.2346,0.2308,0.2314,0.2347,0.2399,0.2416,0.2431,0.224,0.224,0.2239,0,0,0.2003,0.2056,0.2075,0.2058,0.2058,0.2043,0.2048,0.204,0.2077,0.2071,0.2129,0.2204,0.2207,0.2286,0.232,0.2368,0.2373,0.2388,0.2475,0.2526,0.254,0.2554,0.2538,0.2549,0.2408,0.2408,0.2409,0,0.2006,0.2035,0.2057,0.2062,0.2068,0.2059,0.2057,0.2058,0.2049,0.2098,0.211,0.2221,0.2254,0.2365,0.242,0.2393,0.2392,0.2429,0.2536,0.2549,0.2562,0.2543,0.2556,0.2411,0.2411,0.2411,0.241,0,0.2001,0.2029,0.2049,0.2063,0.2053,0.2063,0.2066,0.2083,0.2128,0.2147,0.2258,0.2302,0.2392,0.2426,0.2443,0.2575,0.2531,0.2521,0.2507,0.2582,0.2557,0.2568,0.2415,0.2414,0.2413,0.2413,0,0,0.2007,0.2043,0.2053,0.2063,0.2078,0.2067,0.2106,0.2138,0.2207,0.224,0.2338,0.2449,0.2511,0.2557,0.26,0.2674,0.2753,0.2655,0.2657,0.2632,0.282,0.2644,0.2639,0.2758,0.2762,0.2764,0.2748,0,0.1999,0.2016,0.2044,0.2049,0.2055,0.2096,0.2126,0.217,0.2232,0.2313,0.2431,0.2529,0.2545,0.2624,0.2698,0.2751,0.2796,0.2756,0.2761,0.2761,0.259,0.2652,0.2439,0.2396,0.2759,0.2761,0.2763,0,0.1975,0.1999,0.2019,0.2073,0.2092,0.2104,0.2205,0.2235,0.2356,0.2426,0.2555,0.2616,0.2766,0.2752,0.2876,0.2847,0.2852,0.2871,0.2869,0.2711,0.2609,0.2392,0.2404,0.2782,0.278,0.2779,0.2778,0,0.194,0.1984,0.2015,0.2027,0.2077,0.2138,0.2188,0.2293,0.236,0.2521,0.2593,0.2737,0.2831,0.2884,0.2921,0.2916,0.3005,0.2987,0.2816,0.28,0.2627,0.2589,0.3059,0.3059,0.3059,0.3059,0.3059,0,0.1919,0.194,0.2014,0.2025,0.2097,0.2149,0.2255,0.2333,0.2461,0.2548,0.2669,0.2747,0.2878,0.2926,0.294,0.2899,0.3009,0.2848,0.2805,0.2627,0.2592,0.2945,0.2932,0.3058,0.3058,0.3059,0.3059,0,0.1869,0.191,0.1944,0.2035,0.2074,0.2138,0.2275,0.2343,0.2476,0.259,0.2648,0.2787,0.2847,0.2892,0.2972,0.2905,0.2895,0.2839,0.2584,0.2512,0.2646,0.2636,0.2667,0.2661,0.2656,0.2652,0.2648,0,0.1848,0.1855,0.1949,0.1996,0.2055,0.2155,0.2218,0.2345,0.2408,0.2587,0.2623,0.2735,0.2736,0.2746,0.2686,0.2622,0.2759,0.2385,0.2352,0.2661,0.2617,0.2615,0.2611,0.2123,0.2116,0.211,0.2105,0,0.1818,0.186,0.1907,0.1988,0.2065,0.2123,0.2226,0.2255,0.2393,0.2453,0.252,0.2538,0.2532,0.2371,0.229,0.224,0.2381,0.2252,0.2683,0.224,0.2143,0.2101,0.2118,0.205,0.2056,0.206,0.2063,0.2065,0.1827,0.1856,0.1928,0.1992,0.2068,0.2097,0.2106,0.2143,0.2178,0.219,0.2294,0.2202,0.218,0.1915,0.1844,0.1816,0.1982,0.1915,0.1938,0.1966,0.189,0.1789,0.1612,0.1615,0.1617,0.162,0.1621,0,0.1835,0.1877,0.1931,0.1988,0.2007,0.2087,0.2107,0.2036,0.1976,0.1928,0.1891,0.1641,0.149,0.1515,0.136,0.1324,0.1359,0.13,0.1354,0.1406,0.1454,0.1357,0.0935,0.0933,0.0932,0.093,0,0,0.186,0.1883,0.188,0.1898,0.1961,0.1952,0.1942,0.1788,0.1689,0.1478,0.1356,0.1339,0.1393,0.111,0.1081,0.0996,0.1199,0.0951,0.1496,0.1608,0.1654,0.1793,0.1699,0,0,0,0,0]},{"header":{"parameterUnit":"m.s-1","parameterCategory":2,"la1":30.2991,"la2":30.254,"lo1":-89.0895,"lo2":-89.0444,"dy":0.0017,"dx":0.0017,"nx":28,"ny":28,"refTime":"2023-08-23T21:00:00:Z","depth":"2","parameterNumber":3,"parameterNumberName":"V-component_of_CURRENTS"},"data":[0,0,0,0,0,0,0,0,0,0,0,0,0,0,0,0,0,0,0,0,0,0,0,0,0,0,0,0,0,0,0,0,0,0,0,0,0,0,0,0,0,0,0,0,0,0,0,0,0,0,0,0,0,0,0,0,0,0,-0.0202,-0.0201,0,-0.0157,-0.0157,-0.0156,-0.0188,-0.0189,-0.0191,-0.0192,-0.0289,-0.029,-0.0292,0,0,0,0,0,0,0,0,0,0,0,0,0,-0.0194,-0.0195,-0.0202,-0.0201,-0.0201,-0.0157,-0.0157,-0.0156,-0.0188,-0.0189,-0.0191,-0.0193,-0.0289,-0.029,-0.0292,0,0,0,0,0,0,0,0,0,0,0,0,0,-0.0179,-0.0195,-0.0202,-0.0211,-0.0211,-0.0157,-0.0157,-0.0156,-0.0187,-0.0189,-0.0191,-0.0193,-0.0288,-0.029,-0.0292,-0.0263,0,0,-0.0298,-0.0299,0,0,0,0,0,0,0,0,-0.018,-0.0179,-0.021,-0.021,-0.021,-0.018,-0.0189,-0.0199,-0.0187,-0.0197,-0.0192,-0.0194,-0.0264,-0.0268,-0.0254,-0.0267,-0.0271,-0.0298,-0.0299,-0.03,-0.0301,0,0,0,0,0,0,0,-0.0181,-0.0181,-0.0184,-0.0209,-0.0209,-0.0176,-0.0177,-0.019,-0.0222,-0.0196,-0.0198,-0.0192,-0.0266,-0.0251,-0.0257,-0.0273,-0.0298,-0.03,-0.0301,-0.0302,-0.035,-0.035,0,0,0,0,0,0,-0.019,-0.0182,-0.0186,-0.0183,-0.02,-0.0175,-0.0176,-0.0188,-0.0219,-0.0224,-0.019,-0.0194,-0.0247,-0.0254,-0.026,-0.0298,-0.03,-0.0302,-0.0303,-0.035,-0.035,-0.035,0,0,0,0,0,0,-0.019,-0.0192,-0.0188,-0.018,-0.0178,-0.0174,-0.0186,-0.0186,-0.0186,-0.0213,-0.0222,-0.0193,-0.0249,-0.0258,-0.028,-0.03,-0.0303,-0.0305,-0.035,-0.035,-0.035,-0.033,0,0,0,0,0,0,-0.0191,-0.0192,-0.0204,-0.0182,-0.0178,-0.0162,-0.0184,-0.0184,-0.0178,-0.0183,-0.0217,-0.0227,-0.0251,-0.0277,-0.0282,-0.0303,-0.0306,-0.035,-0.035,-0.035,-0.0331,-0.033,-0.0329,0,0,0,0,0,-0.0191,-0.0198,-0.0206,-0.0206,-0.0196,-0.0161,-0.0156,-0.0159,-0.0176,-0.0169,-0.0196,-0.0227,-0.0283,-0.0278,-0.0284,-0.0306,-0.035,-0.035,-0.035,-0.0331,-0.033,-0.0329,0,0,0,0,0,0,-0.0188,-0.0201,-0.0209,-0.0218,-0.0194,-0.0167,-0.0164,-0.0158,-0.0168,-0.019,-0.0216,-0.0227,-0.0256,-0.0276,-0.027,-0.0321,-0.0326,-0.0328,-0.031,-0.0309,-0.0308,-0.0281,-0.0308,0,0,0,0,0,-0.0194,-0.0216,-0.02,-0.0203,-0.02,-0.0181,-0.017,-0.017,-0.0171,-0.0177,-0.0197,-0.0231,-0.0255,-0.0279,-0.0298,-0.0318,-0.0306,-0.034,-0.0339,-0.0338,-0.032,-0.032,-0.0317,-0.0351,-0.0351,-0.0351,0,0,-0.0192,-0.0201,-0.0212,-0.0205,-0.0196,-0.0166,-0.0181,-0.017,-0.0149,-0.0188,-0.0187,-0.0222,-0.0256,-0.0281,-0.0299,-0.0308,-0.0318,-0.0339,-0.0337,-0.0319,-0.032,-0.0316,-0.0313,-0.0351,-0.0351,-0.0351,0,0,-0.0172,-0.021,-0.0207,-0.0192,-0.0181,-0.0168,-0.0166,-0.0147,-0.0155,-0.0149,-0.0181,-0.0219,-0.0248,-0.0276,-0.0295,-0.0296,-0.0306,-0.032,-0.0303,-0.0304,-0.03,-0.0297,-0.0258,-0.0252,-0.0329,-0.0329,-0.0329,0,-0.0171,-0.0165,-0.0192,-0.017,-0.0157,-0.0168,-0.0135,-0.013,-0.0119,-0.0125,-0.0155,-0.0198,-0.0241,-0.0262,-0.0276,-0.0295,-0.0281,-0.0306,-0.0301,-0.0298,-0.0295,-0.0255,-0.0249,-0.0328,-0.0328,-0.0328,-0.0328,0,-0.0128,-0.0127,-0.0123,-0.0111,-0.0095,-0.0079,-0.0072,-0.0069,-0.0091,-0.009,-0.0121,-0.0171,-0.0199,-0.0232,-0.026,-0.0271,-0.026,-0.0291,-0.03,-0.029,-0.0249,-0.0242,-0.0327,-0.0327,-0.0327,-0.0328,0,0,-0.0117,-0.0103,-0.0101,-0.0085,-0.0073,-0.0051,-0.0034,-0.0017,-0.0012,-0.004,-0.0033,-0.0102,-0.0144,-0.0166,-0.0216,-0.0232,-0.0213,-0.0258,-0.0258,-0.021,-0.0179,-0.0183,-0.0176,-0.0247,-0.0246,-0.0246,-0.0151,0,-0.0076,-0.0039,-0.0037,0.0012,0.0034,0.0024,0.0047,0.0052,0.0032,0.0033,-0.0031,-0.0054,-0.0114,-0.0148,-0.0169,-0.0201,-0.0197,-0.0233,-0.0203,-0.02,-0.02,-0.017,-0.0169,-0.0086,-0.0144,-0.0143,-0.0142,0,-0.0026,-0.0009,0.0028,0.006,0.0066,0.0093,0.0104,0.0122,0.0112,0.0089,0.0054,0.0015,-0.0016,-0.0076,-0.0096,-0.0116,-0.0138,-0.016,-0.0158,-0.0162,-0.0193,-0.0111,-0.0072,-0.0131,-0.0132,-0.0133,-0.0134,0,-0.0006,0.0039,0.0058,0.0069,0.0104,0.0116,0.013,0.013,0.0144,0.0121,0.0129,0.0082,0.0071,0.0028,-0.002,-0.0059,-0.0019,-0.0081,-0.0089,-0.0088,-0.0079,-0.0079,-0.0076,-0.0076,-0.0076,-0.0076,-0.0076,0,0.0029,0.0055,0.0064,0.0079,0.0115,0.0128,0.0157,0.0158,0.0173,0.0211,0.0151,0.019,0.0094,0.0101,0.0036,0.0017,0.0031,-0.0059,-0.0066,-0.0071,-0.0071,-0.0115,-0.0121,-0.0073,-0.0073,-0.0074,-0.0075,0,0.0051,0.0051,0.0083,0.0109,0.0123,0.014,0.0188,0.0215,0.0218,0.0273,0.0274,0.0287,0.0303,0.0235,0.0193,0.0107,0.0069,0.006,0.0082,0.0074,-0.001,-0.0016,0.0056,0.0057,0.0057,0.0058,0.0058,0,0.0059,0.0077,0.0096,0.0112,0.0123,0.0157,0.0194,0.0223,0.0272,0.0356,0.0405,0.0439,0.0494,0.0444,0.0297,0.0211,0.0168,0.0132,0.0032,0.0017,0.0003,-0.0004,-0.001,0.007,0.0071,0.0071,0.0071,0,0.0089,0.008,0.0094,0.013,0.0163,0.0221,0.0283,0.0342,0.0406,0.0489,0.0629,0.0683,0.0631,0.0545,0.0387,0.0308,0.0131,0.0134,0.0132,0.002,0.0032,0.0018,0.0011,0.0074,0.0074,0.0074,0.0074,0.0074,0.0094,0.0104,0.0115,0.0153,0.0194,0.0285,0.0348,0.047,0.0598,0.0734,0.0786,0.0851,0.0704,0.0505,0.0386,0.0211,0.0196,0.0097,0.0095,0.0093,0.0061,0.0071,0.0118,0.0118,0.0118,0.0118,0.0118,0,0.011,0.0123,0.0153,0.0202,0.0262,0.0281,0.0411,0.0505,0.0697,0.0817,0.0938,0.0802,0.0713,0.0552,0.0295,0.0145,0.0115,0.0103,0.0086,0.0084,0.0082,0.0047,0.0103,0.0102,0.0102,0.0102,0,0,0.0115,0.0151,0.0169,0.0257,0.0291,0.0377,0.0449,0.0622,0.0732,0.0889,0.0914,0.0919,0.0726,0.0529,0.0354,0.0231,0.0187,0.0204,0.0229,0.0228,0.0227,0.0089,0.0035,0,0,0,0,0]}],[{"header":{"parameterUnit":"m.s-1","parameterCategory":2,"la1":30.2991,"la2":30.254,"lo1":-89.0895,"lo2":-89.0444,"dy":0.0017,"dx":0.0017,"nx":28,"ny":28,"refTime":"2023-08-23T21:00:00:Z","depth":"4","parameterNumber":2,"parameterNumberName":"U-component_of_CURRENTS"},"data":[0,0,0,0,0,0,0,0,0,0,0,0,0,0,0,0,0,0,0,0,0,0,0,0,0,0,0,0,0,0,0,0,0,0,0,0,0,0,0,0,0,0,0,0,0,0,0,0,0,0,0,0,0,0,0,0,0,0,0.0527,0.0527,0,0.0555,0.0555,0.0555,0.0546,0.0546,0.0546,0.0546,0.0523,0.0522,0.0522,0,0,0,0,0,0,0,0,0,0,0,0,0,0.0511,0.051,0.0526,0.0527,0.0529,0.0555,0.0555,0.0555,0.0546,0.0546,0.0546,0.0546,0.0523,0.0522,0.0522,0,0,0,0,0,0,0,0,0,0,0,0,0,0.0519,0.051,0.0526,0.0533,0.0534,0.0556,0.0555,0.0555,0.0546,0.0546,0.0546,0.0546,0.0523,0.0523,0.0522,0.0514,0,0,0.0518,0.0518,0,0,0,0,0,0,0,0,0.0519,0.0519,0.0531,0.0532,0.0534,0.0554,0.0542,0.0541,0.0546,0.0534,0.0546,0.0546,0.0533,0.0531,0.0527,0.0513,0.0512,0.0518,0.0518,0.0517,0.0517,0,0,0,0,0,0,0,0.0518,0.0518,0.0531,0.0532,0.0534,0.0551,0.0551,0.0541,0.0526,0.0535,0.0536,0.0551,0.0533,0.0528,0.0526,0.0511,0.0518,0.0518,0.0517,0.0517,0.0529,0.0529,0,0,0,0,0,0,0.0526,0.0517,0.053,0.0532,0.0535,0.0551,0.0551,0.0541,0.0527,0.0528,0.0551,0.0551,0.053,0.0528,0.0526,0.0566,0.0517,0.0516,0.0516,0.0528,0.0529,0.053,0,0,0,0,0,0,0.0525,0.0526,0.0529,0.0533,0.0535,0.0552,0.0541,0.0542,0.0559,0.0541,0.0539,0.057,0.053,0.0527,0.055,0.0563,0.0516,0.0515,0.0527,0.0528,0.0529,0.0614,0,0,0,0,0,0,0.0524,0.0525,0.0525,0.0532,0.0536,0.0555,0.0542,0.0543,0.057,0.057,0.0557,0.0553,0.0529,0.0552,0.0549,0.0561,0.0514,0.0525,0.0527,0.0529,0.061,0.0618,0.0625,0,0,0,0,0,0.0523,0.0512,0.0524,0.0527,0.0532,0.0557,0.0559,0.0567,0.0571,0.0581,0.0586,0.0555,0.056,0.0553,0.0549,0.056,0.0525,0.0527,0.0529,0.0607,0.0616,0.0625,0,0,0,0,0,0,0.0511,0.0511,0.0524,0.0516,0.0548,0.0558,0.0566,0.0583,0.0594,0.0597,0.0578,0.0576,0.0599,0.0571,0.0563,0.0568,0.0532,0.0533,0.0592,0.0601,0.0609,0.0582,0.0513,0,0,0,0,0,0.0511,0.049,0.0523,0.0518,0.0536,0.056,0.0574,0.0589,0.0602,0.0607,0.061,0.0602,0.06,0.0597,0.059,0.0598,0.0592,0.0598,0.0606,0.0612,0.0588,0.0649,0.066,0.0537,0.0537,0.0537,0,0,0.0506,0.0504,0.0495,0.0515,0.0533,0.0562,0.0566,0.0595,0.0618,0.0603,0.0632,0.0637,0.0611,0.0624,0.0629,0.0604,0.0643,0.0615,0.0621,0.0592,0.0652,0.0665,0.0675,0.0538,0.0538,0.0538,0,0,0.0493,0.0488,0.0483,0.0509,0.0552,0.0569,0.0588,0.0627,0.064,0.068,0.0673,0.0696,0.0691,0.0681,0.0669,0.0713,0.069,0.0706,0.0714,0.0776,0.0786,0.0796,0.08,0.0809,0.0701,0.0701,0.0701,0,0.0507,0.0489,0.0493,0.0512,0.0537,0.0578,0.0609,0.0627,0.0673,0.0688,0.0697,0.0725,0.0711,0.0721,0.0726,0.0729,0.0743,0.0687,0.0788,0.0797,0.0805,0.0807,0.0816,0.0705,0.0705,0.0704,0.0704,0,0.0499,0.0501,0.0504,0.0531,0.056,0.0589,0.0633,0.067,0.0702,0.0723,0.0766,0.0776,0.0789,0.0789,0.0762,0.0804,0.0788,0.0804,0.0769,0.0823,0.082,0.0828,0.0711,0.071,0.0708,0.0707,0,0,0.0497,0.05,0.0505,0.0519,0.0574,0.0595,0.0641,0.0688,0.0718,0.0768,0.0808,0.0812,0.0836,0.0823,0.0822,0.0848,0.0916,0.0841,0.0842,0.0849,0.102,0.0952,0.0953,0.0969,0.0971,0.0973,0.0994,0,0.0507,0.0517,0.0526,0.056,0.0576,0.0626,0.0662,0.0709,0.0751,0.0801,0.0823,0.0861,0.0845,0.0871,0.0901,0.0916,0.0941,0.0906,0.0959,0.0958,0.0898,0.0962,0.0979,0.0999,0.1001,0.1002,0.1003,0,0.0504,0.0508,0.0529,0.0561,0.0579,0.0616,0.0682,0.0725,0.0791,0.0829,0.0882,0.0906,0.0943,0.0941,0.0999,0.0985,0.0997,0.1004,0.1007,0.091,0.0905,0.0934,0.1017,0.1016,0.1015,0.1014,0.1013,0,0.0479,0.051,0.0515,0.053,0.0583,0.0616,0.0665,0.0734,0.0773,0.0861,0.091,0.0962,0.1016,0.1048,0.1063,0.1047,0.1125,0.1118,0.1061,0.1054,0.1071,0.106,0.1166,0.1166,0.1166,0.1166,0.1166,0,0.0466,0.0472,0.0504,0.0512,0.0549,0.0601,0.0661,0.0722,0.0805,0.0854,0.0932,0.0977,0.1054,0.1103,0.1095,0.1101,0.1169,0.1055,0.1066,0.1103,0.1096,0.1076,0.1065,0.1167,0.1167,0.1167,0.1167,0,0.0419,0.0437,0.045,0.0506,0.0533,0.0563,0.0664,0.07,0.0802,0.0879,0.0915,0.1013,0.1077,0.1129,0.1183,0.1149,0.1153,0.114,0.1151,0.1163,0.102,0.1013,0.1059,0.1057,0.1055,0.1054,0.1053,0,0.0388,0.0384,0.0439,0.0455,0.0483,0.0543,0.0586,0.0691,0.0731,0.0877,0.09,0.1007,0.1063,0.1089,0.1135,0.1145,0.1132,0.1122,0.1071,0.1008,0.1015,0.1011,0.1006,0.105,0.1049,0.1049,0.1049,0,0.0333,0.0351,0.0367,0.0408,0.0448,0.0488,0.0561,0.0588,0.071,0.0806,0.0879,0.0927,0.1002,0.1036,0.1081,0.1072,0.112,0.1104,0.1106,0.1057,0.0998,0.1005,0.1003,0.1043,0.1044,0.1044,0.1044,0,0.0301,0.0296,0.0325,0.0357,0.0398,0.0425,0.0474,0.0536,0.06,0.0764,0.0772,0.0893,0.0984,0.0997,0.1016,0.1033,0.0999,0.0953,0.0962,0.0969,0.0932,0.0843,0.085,0,0,0,0,0,0.0272,0.026,0.0277,0.0312,0.0343,0.0373,0.0448,0.0498,0.0615,0.0646,0.0717,0.0781,0.0846,0.0884,0.0882,0.0948,0.0988,0.0937,0.0935,0.101,0.1017,0.0983,0,0,0,0,0,0,0.0253,0.0255,0.0257,0.0259,0.0272,0.031,0.0353,0.0431,0.0457,0.058,0.0617,0.0716,0.0781,0.0843,0.0862,0.0876,0.0853,0.1005,0.1002,0.1006,0.1013,0.1018,0.0985,0,0,0,0,0]},{"header":{"parameterUnit":"m.s-1","parameterCategory":2,"la1":30.2991,"la2":30.254,"lo1":-89.0895,"lo2":-89.0444,"dy":0.0017,"dx":0.0017,"nx":28,"ny":28,"refTime":"2023-08-23T21:00:00:Z","depth":"4","parameterNumber":3,"parameterNumberName":"V-component_of_CURRENTS"},"data":[0,0,0,0,0,0,0,0,0,0,0,0,0,0,0,0,0,0,0,0,0,0,0,0,0,0,0,0,0,0,0,0,0,0,0,0,0,0,0,0,0,0,0,0,0,0,0,0,0,0,0,0,0,0,0,0,0,0,0.0182,0.0182,0,0.0171,0.0171,0.0171,0.0168,0.0168,0.0168,0.0167,0.0111,0.011,0.0109,0,0,0,0,0,0,0,0,0,0,0,0,0,0.0152,0.0153,0.0183,0.0182,0.0182,0.0171,0.0171,0.0171,0.0168,0.0168,0.0168,0.0167,0.0112,0.011,0.0109,0,0,0,0,0,0,0,0,0,0,0,0,0,0.0157,0.0153,0.0183,0.0177,0.0177,0.0171,0.0171,0.0171,0.0168,0.0168,0.0167,0.0167,0.0112,0.011,0.0108,0.01,0,0,0.0102,0.0101,0,0,0,0,0,0,0,0,0.0157,0.0159,0.0178,0.0178,0.0177,0.0169,0.0139,0.0144,0.0168,0.0174,0.0167,0.0167,0.0125,0.0122,0.0124,0.0097,0.0095,0.0102,0.0101,0.01,0.0099,0,0,0,0,0,0,0,0.0157,0.0159,0.018,0.0178,0.0177,0.0158,0.0159,0.0141,0.0152,0.0173,0.0172,0.0167,0.0125,0.0126,0.0123,0.0094,0.0102,0.01,0.0099,0.0098,0.0076,0.0077,0,0,0,0,0,0,0.0157,0.0159,0.0181,0.018,0.0164,0.0159,0.016,0.0173,0.0153,0.0149,0.0168,0.0167,0.013,0.0125,0.0121,0.0112,0.01,0.0098,0.0097,0.0076,0.0076,0.0077,0,0,0,0,0,0,0.0157,0.016,0.0181,0.0166,0.0167,0.016,0.0174,0.0173,0.0178,0.0149,0.0145,0.0173,0.0129,0.0123,0.0102,0.011,0.0097,0.0095,0.0075,0.0076,0.0077,0.0093,0,0,0,0,0,0,0.0156,0.016,0.017,0.0167,0.0168,0.0181,0.0174,0.0173,0.0174,0.0173,0.0152,0.0146,0.0129,0.0105,0.01,0.0107,0.0094,0.0074,0.0075,0.0076,0.0092,0.0095,0.0097,0,0,0,0,0,0.0155,0.0172,0.0171,0.0174,0.0183,0.0181,0.018,0.0175,0.0174,0.0178,0.0159,0.0147,0.011,0.0103,0.0097,0.0104,0.0073,0.0075,0.0076,0.0091,0.0094,0.0097,0,0,0,0,0,0,0.0159,0.0173,0.0172,0.0191,0.0186,0.0179,0.0184,0.0179,0.017,0.0169,0.0145,0.0138,0.0125,0.0114,0.0108,0.0104,0.0094,0.0094,0.0107,0.011,0.0113,0.0107,0.0092,0,0,0,0,0,0.0166,0.0187,0.0184,0.0198,0.02,0.0193,0.0192,0.0188,0.0177,0.0174,0.0155,0.0141,0.0127,0.0117,0.0103,0.0094,0.0067,0.0099,0.0101,0.0104,0.0097,0.0052,0.0048,0.0082,0.0082,0.0082,0,0,0.0166,0.0179,0.0188,0.02,0.02,0.0201,0.0193,0.0196,0.0193,0.0167,0.0159,0.0144,0.0126,0.0117,0.0112,0.0107,0.0085,0.0105,0.0107,0.0099,0.0053,0.0049,0.0046,0.0083,0.0083,0.0082,0,0,0.0175,0.0196,0.0211,0.0213,0.0215,0.0211,0.0213,0.0207,0.0204,0.019,0.0175,0.0159,0.0142,0.0125,0.0117,0.0125,0.0099,0.0135,0.014,0.0097,0.0093,0.0089,0.0067,0.0061,0.0137,0.0137,0.0137,0,0.0172,0.0199,0.021,0.0221,0.0226,0.0218,0.0224,0.0218,0.0201,0.0197,0.019,0.0161,0.0143,0.0127,0.0133,0.0128,0.0107,0.0127,0.0098,0.0093,0.0089,0.0067,0.006,0.0138,0.0138,0.0138,0.0138,0,0.0184,0.0207,0.0217,0.0234,0.0238,0.0247,0.0238,0.0237,0.0232,0.0218,0.0202,0.0172,0.0156,0.0154,0.0143,0.0118,0.0115,0.0103,0.0085,0.0086,0.0064,0.0056,0.014,0.0139,0.0139,0.0139,0,0,0.0185,0.0219,0.0225,0.0242,0.0252,0.0259,0.0257,0.0255,0.0256,0.023,0.0221,0.0194,0.0179,0.0168,0.0152,0.0114,0.0071,0.01,0.0097,0.0069,-0.0012,0.0012,0.0006,0.0051,0.005,0.0049,-0.0011,0,0.0193,0.022,0.0236,0.0262,0.0278,0.0283,0.0285,0.0279,0.0268,0.0254,0.0218,0.0203,0.0185,0.0181,0.0137,0.0086,0.005,0.0089,-0.0002,-0.0004,0.0009,-0.0002,0.0044,-0.0016,-0.0018,-0.002,-0.002,0,0.0206,0.0227,0.0251,0.0293,0.0302,0.0314,0.0332,0.0333,0.0308,0.0297,0.0267,0.0236,0.0186,0.0167,0.0067,0.0094,0.0045,-0.0,-0.0004,0.0003,0.0005,-0.0021,-0.0034,-0.0033,-0.0032,-0.0031,-0.0031,0,0.0213,0.025,0.0274,0.0286,0.0314,0.0336,0.0355,0.0348,0.0357,0.0326,0.0319,0.025,0.0223,0.0137,0.0057,0.0057,-0.0058,-0.007,-0.0095,-0.0093,-0.0105,-0.0101,-0.0147,-0.0147,-0.0147,-0.0147,-0.0146,0,0.0231,0.0256,0.0284,0.0303,0.0341,0.0359,0.0395,0.0398,0.0396,0.04,0.0348,0.0319,0.0212,0.0138,0.0056,-0.0036,-0.0058,-0.0101,-0.0114,-0.0092,-0.0086,-0.011,-0.0105,-0.0149,-0.0148,-0.0148,-0.0148,0,0.0239,0.0255,0.029,0.0329,0.035,0.0379,0.0439,0.0457,0.0454,0.0455,0.0447,0.0367,0.027,0.0171,0.0032,-0.0022,-0.0122,-0.0146,-0.0099,-0.0108,-0.0128,-0.0121,-0.0192,-0.0192,-0.0192,-0.0192,-0.0192,0,0.0244,0.0261,0.031,0.0334,0.036,0.0412,0.0448,0.0481,0.0497,0.0477,0.0468,0.0387,0.0324,0.015,0.0038,-0.0105,-0.0122,-0.0161,-0.0165,-0.0131,-0.0137,-0.013,-0.0123,-0.0191,-0.0191,-0.0191,-0.0191,0,0.0253,0.0269,0.0297,0.0345,0.0393,0.0443,0.0499,0.0515,0.054,0.0541,0.0484,0.0395,0.029,0.0148,0.0056,-0.0056,-0.0135,-0.016,-0.0161,-0.0166,-0.0131,-0.0135,-0.0129,-0.0191,-0.0191,-0.0191,-0.0191,0,0.0258,0.0277,0.0314,0.0357,0.0409,0.0453,0.0488,0.0513,0.0536,0.0524,0.0496,0.0385,0.0322,0.0172,0.007,-0.0017,-0.0048,-0.0077,-0.0083,-0.0085,-0.0034,0.0027,-0.0002,0,0,0,0,0,0.0261,0.0288,0.0324,0.0371,0.0418,0.0452,0.0508,0.0534,0.056,0.0531,0.0523,0.0425,0.0273,0.0188,0.0104,0.006,-0.0069,-0.0042,-0.0105,-0.0188,-0.0188,-0.0144,0,0,0,0,0,0,0.0263,0.0303,0.0321,0.037,0.0401,0.0461,0.0495,0.0514,0.05,0.0506,0.0419,0.0405,0.0247,0.032,0.0099,0.0071,0.002,-0.0108,-0.0109,-0.0187,-0.0188,-0.0188,-0.0143,0,0,0,0,0]}]]